Gadsden, AL

11:33 PM CDT on August 25, 2019 (GMT -0500)
Gadsden Municipal

Weather History for KGAD - July, 2019

Change the Weather History Date:

Wednesday, July 17, 2019

  Actual Average Record
Temperature  
Mean Temperature 79 °F -  
Max Temperature 87 °F 86 °F 105 °F (1944)
Min Temperature 71 °F 66 °F 57 °F (2014)
Cooling Degree Days 14    
Growing Degree Days 29 (Base 50)    
Moisture  
Dew Point 77 °F    
Average Humidity 91    
Maximum Humidity 100    
Minimum Humidity 72    
Precipitation  
Precipitation 0.30 in - - ()
Sea Level Pressure  
Sea Level Pressure 30.10 in    
Wind  
Wind Speed 4 mph (West)    
Max Wind Speed 25 mph    
Max Gust Speed 30 mph    
Visibility 10 miles    
Events Rain , Thunderstorm    
Averages and records for this station are not official NWS values.
T = Trace of Precipitation, MM = Missing Value Source: NWS Daily Summary

Daily Weather History Graph

Daily Weather History Graph

Search for Another Location

Airport or City:

Astronomy

Jul. 17, 2019 Rise Set
Actual Time 5:45 AM CDT 7:55 PM CDT
Civil Twilight 5:17 AM CDT 8:23 PM CDT
Nautical Twilight 4:42 AM CDT 8:58 PM CDT
Astronomical Twilight 4:04 AM CDT 9:35 PM CDT
Moon 8:44 PM CDT (7/17) 6:17 AM CDT (7/17)
Length of Visible Light 15h 06m
Length of Day
14h 09m
Full, 99% of the Moon is Illuminated
Jul 17
Full
Jul 24
Last Quarter
Jul 31
New
Aug 7
First Quarter
Aug 15
Full

Hourly Weather History & Observations

Time (CDT) Temp. Heat Index Dew Point Humidity Pressure Visibility Wind Dir Wind Speed Gust Speed Precip Events Conditions
12:56 AM 73.0 °F - 73.0 °F 100% 30.09 in 9.0 mi Calm Calm - N/A   Clear
1:56 AM 72.0 °F - 72.0 °F 100% 30.09 in 10.0 mi Calm Calm - N/A   Clear
2:56 AM 72.0 °F - - N/A% 30.07 in 10.0 mi Calm Calm - N/A   Clear
3:56 AM 72.0 °F - - N/A% 30.08 in 10.0 mi Calm Calm - N/A   Clear
4:56 AM 71.1 °F - - N/A% 30.08 in 10.0 mi Calm Calm - N/A   Clear
5:56 AM 71.1 °F - - N/A% 30.09 in 10.0 mi Calm Calm - N/A   Clear
6:56 AM 73.0 °F - 73.0 °F 100% 30.10 in 10.0 mi Calm Calm - N/A   Clear
7:56 AM 78.1 °F - 77.0 °F 96% 30.13 in 10.0 mi SW 5.8 mph - N/A   Clear
8:07 AM 80.6 °F 88.1 °F 78.8 °F 94% 30.13 in 10.0 mi WSW 4.6 mph - N/A   Partly Cloudy
8:56 AM 82.9 °F 93.8 °F 79.0 °F 88% 30.13 in 10.0 mi SW 8.1 mph - N/A   Scattered Clouds
9:06 AM 82.4 °F 92.4 °F 78.8 °F 89% 30.13 in 10.0 mi WSW 11.5 mph - N/A   Mostly Cloudy
9:49 AM 82.4 °F 92.4 °F 78.8 °F 89% 30.14 in 10.0 mi West 13.8 mph - N/A   Scattered Clouds
9:56 AM 84.0 °F 94.8 °F 78.1 °F 82% 30.13 in 10.0 mi West 13.8 mph - N/A   Scattered Clouds
10:48 AM 86.0 °F 96.9 °F 77.0 °F 74% 30.13 in 10.0 mi WSW 13.8 mph - N/A   Mostly Cloudy
10:56 AM 87.1 °F 98.8 °F 77.0 °F 72% 30.14 in 10.0 mi West 12.7 mph - N/A   Mostly Cloudy
11:56 AM 87.1 °F 98.8 °F 77.0 °F 72% 30.13 in 10.0 mi WSW 13.8 mph - N/A   Scattered Clouds
12:56 PM 87.1 °F 98.8 °F 77.0 °F 72% 30.13 in 10.0 mi WNW 13.8 mph 18.4 mph N/A   Mostly Cloudy
1:14 PM 86.0 °F 96.9 °F 77.0 °F 74% 30.13 in 10.0 mi NW 12.7 mph - N/A Thunderstorm Scattered Clouds
1:56 PM 82.0 °F 90.2 °F 77.0 °F 85% 30.12 in 10.0 mi NW 12.7 mph - N/A Thunderstorm Partly Cloudy
2:04 PM 80.6 °F 87.1 °F 77.0 °F 89% 30.12 in 9.0 mi NNW 11.5 mph 17.3 mph N/A   Scattered Clouds
2:56 PM 77.0 °F - 77.0 °F 100% 30.11 in 10.0 mi Calm Calm - N/A Rain Light Rain
3:56 PM 80.1 °F 87.4 °F 80.1 °F 100% 30.09 in 10.0 mi Calm Calm - 0.00 in   Clear
4:56 PM 81.0 °F 89.2 °F 79.0 °F 94% 30.07 in 10.0 mi Calm Calm - N/A   Clear
5:56 PM 82.0 °F 92.8 °F 80.1 °F 94% 30.05 in 10.0 mi Calm Calm - N/A   Clear
6:56 PM 82.0 °F 92.8 °F 80.1 °F 94% 30.05 in 10.0 mi East 3.5 mph - N/A   Clear
7:56 PM 79.0 °F - 79.0 °F 100% 30.05 in 10.0 mi Calm Calm - N/A   Clear
8:56 PM 75.9 °F - 75.9 °F 100% 30.07 in 10.0 mi Calm Calm - N/A   Clear
9:34 PM 77.0 °F - - N/A% 30.09 in 10.0 mi Calm Calm - N/A Thunderstorm Clear
9:56 PM 77.0 °F - - N/A% 30.12 in 8.0 mi West 13.8 mph 19.6 mph N/A Thunderstorm Thunderstorm
10:03 PM 75.2 °F - 75.2 °F 100% 30.11 in 4.0 mi WSW 25.3 mph 29.9 mph 0.10 in Rain , Thunderstorm Heavy Thunderstorms and Rain
10:27 PM 75.2 °F - 73.4 °F 94% 30.10 in 10.0 mi Calm Calm - 0.30 in Rain , Thunderstorm Light Thunderstorms and Rain
10:29 PM 75.2 °F - 73.4 °F 94% 30.10 in 10.0 mi East 4.6 mph - 0.30 in Rain Light Rain
10:36 PM 73.4 °F - 73.4 °F 100% 30.10 in 10.0 mi ENE 4.6 mph - 0.30 in Rain , Thunderstorm Light Thunderstorms and Rain
10:46 PM 73.4 °F - 73.4 °F 100% 30.11 in 10.0 mi West 4.6 mph - 0.30 in Rain Light Rain
10:56 PM 73.0 °F - - N/A% 30.11 in 10.0 mi Calm Calm - 0.30 in   Clear
11:56 PM 73.0 °F - - N/A% 30.10 in 10.0 mi SSW 4.6 mph - N/A   Partly Cloudy